Miscellaneous Local Product
Issued by NWS Hastings, NE

Home | Current Version | Previous Version | Text Only | Print | Product List | Glossary Off
Versions: 1 2 3 4 5 6 7 8 9 10 11 12 13 14 15 16 17 18 19 20 21 22 23 24 25 26 27 28 29 30 31 32 33 34 35 36 37 38 39 40 41 42 43 44 45 46 47 48 49 50

000
AXUS43 KGID 242302
MISGRI

GID CWA HOURLY WEATHER ROUNDUP
NATIONAL WEATHER SERVICE HASTINGS NE
600 PM CDT FRI APR 24 2015

NOTE: "FAIR" INDICATES FEW OR NO CLOUDS BELOW 12,000 FEET WITH NO
SIGNIFICANT WEATHER AND/OR OBSTRUCTIONS TO VISIBILITY.

...SOUTH CENTRAL NEBRASKA...

CITY           SKY/WX    TMP DP  RH WIND       PRES   REMARKS
GRAND ISLAND   PTSUNNY   64  56  75 SE14      29.55F
HASTINGS       CLOUDY    61  56  83 E8        29.54F
KEARNEY        CLOUDY    64  55  72 SE13G18   29.54F
ORD            MOSUNNY   69  52  54 S10G20    29.50F
YORK           CLOUDY    63  55  77 S9        29.58F
AURORA         CLOUDY    60  58  93 SE10      29.57F FOG
LEXINGTON      PTSUNNY   68  54  60 SE5       29.51F
HOLDREGE       PTSUNNY   66  56  68 E16       29.51F
HEBRON         RAIN      58  56  91 E8        29.56F

...NEBRASKA PANHANDLE...

CITY           SKY/WX    TMP DP  RH WIND       PRES   REMARKS
CHADRON        PTSUNNY   61  43  51 N23G33    29.56R
ALLIANCE       PTSUNNY   61  42  49 NW23G31   29.55R
SCOTTSBLUFF    CLOUDY    67  39  35 NE16      29.55R THUNDER
SIDNEY         CLOUDY    65  36  34 W13       29.58S

...WESTERN AND NORTH CENTRAL NEBRASKA...

CITY           SKY/WX    TMP DP  RH WIND       PRES   REMARKS
VALENTINE      CLOUDY    75  36  24 E7        29.46F
AINSWORTH      CLOUDY    73  39  28 CALM      29.49S
ONEILL         CLOUDY    72  54  53 S8        29.50F
BROKEN BOW     MOSUNNY   71  53  52 SE14G25   29.51F
IMPERIAL       PTSUNNY   69  40  34 NE9       29.51F
NORTH PLATTE   NOT AVBL
MCCOOK         CLOUDY    69  51  52 N6        29.50F

...EASTERN NEBRASKA...

CITY           SKY/WX    TMP DP  RH WIND       PRES   REMARKS
NORFOLK        PTSUNNY   71  55  56 S21       29.53F
SO SIOUX CITY  MOSUNNY   73  51  46 S10       29.55F
TEKAMAH        LGT RAIN  71  54  54 S14       29.57F
COLUMBUS       CLOUDY    66  54  63 S12       29.58F
ALBION         MOSUNNY   68  52  56 S13       29.53F
OMAHA EPPLEY   CLOUDY    65  52  62 S15G22    29.60R
OFFUTT AFB     CLOUDY    63  52  67 SE15      29.61R
MILLARD        CLOUDY    64  53  66 S12       29.61R
LINCOLN        CLOUDY    63  54  72 SE10      29.60F
NEBRASKA CITY  CLOUDY    59  50  71 S10       29.62F
BEATRICE       CLOUDY    60  55  81 SE7       29.59F
FALLS CITY     CLOUDY    61  53  75 S12       29.60F

...NORTHERN KANSAS...

CITY           SKY/WX    TMP DP  RH WIND       PRES   REMARKS
GOODLAND       CLOUDY    61  39  44 SE8       29.52F
HILL CITY      CLOUDY    67  54  63 E15G22    29.47S
NORTON         MOCLDY    68  52  56 E9        29.49S
HAYS           CLOUDY    63  48  59 NE17G28   29.42F
RUSSELL        MOSUNNY   76  59  55 E13       29.41F
CONCORDIA      PTSUNNY   66  57  72 E12       29.52F
SALINA         MOSUNNY   73  60  63 E13       29.46F
TOPEKA         CLOUDY    63  55  75 E9        29.59F



USA.gov is the U.S. government's official web portal to all federal, state and local government web resources and services.